owner,sensor,date,latitude,longitude,vertical_datum,wind_speed,wind_to_direction,wind_speed_of_gust,qcFlag 
DISL,ioos:station:DISL:BSCA:1,2019-01-01T00:00:00Z,30.3288,-87.8293,0.0,7.2,176.0,99.0,'11111222,11111222,11144222' 
DISL,ioos:station:DISL:BSCA:1,2019-01-01T00:30:00Z,30.3288,-87.8293,0.0,6.4,178.0,99.0,'11111222,11111222,11144222' 
DISL,ioos:station:DISL:BSCA:1,2019-01-01T01:00:00Z,30.3288,-87.8293,0.0,5.5,184.0,99.0,'11111222,11111222,11144222' 
DISL,ioos:station:DISL:BSCA:1,2019-01-01T01:30:00Z,30.3288,-87.8293,0.0,6.0,189.0,99.0,'11111222,11111222,11144222' 
DISL,ioos:station:DISL:BSCA:1,2019-01-01T02:00:00Z,30.3288,-87.8293,0.0,6.4,186.0,99.0,'11111222,11111222,11144222' 
DISL,ioos:station:DISL:BSCA:1,2019-01-01T02:30:00Z,30.3288,-87.8293,0.0,6.5,183.0,99.0,'11111222,11111222,11144222' 
DISL,ioos:station:DISL:BSCA:1,2019-01-01T03:00:00Z,30.3288,-87.8293,0.0,6.7,187.0,99.0,'11111222,11111222,11144222' 
DISL,ioos:station:DISL:BSCA:1,2019-01-01T03:30:00Z,30.3288,-87.8293,0.0,7.1,189.0,99.0,'11111222,11111222,11144222' 
DISL,ioos:station:DISL:BSCA:1,2019-01-01T04:00:00Z,30.3288,-87.8293,0.0,6.5,187.0,99.0,'11111222,11111222,11144222' 
DISL,ioos:station:DISL:BSCA:1,2019-01-01T04:30:00Z,30.3288,-87.8293,0.0,7.3,219.0,99.0,'11111222,11111222,11144222' 
DISL,ioos:station:DISL:BSCA:1,2019-01-01T05:00:00Z,30.3288,-87.8293,0.0,4.2,208.0,99.0,'11111222,11111222,11144222' 
DISL,ioos:station:DISL:BSCA:1,2019-01-01T05:30:00Z,30.3288,-87.8293,0.0,3.2,190.0,99.0,'11111222,11111222,11144222' 
DISL,ioos:station:DISL:BSCA:1,2019-01-01T06:00:00Z,30.3288,-87.8293,0.0,2.1,204.0,99.0,'11111222,11111222,11144222' 
DISL,ioos:station:DISL:BSCA:1,2019-01-01T06:20:00Z,30.3288,-87.8293,0.0,1.51,206.8,-9999.0,'1111122,1111122,1111122' 
DISL,ioos:station:DISL:BSCA:1,2019-01-01T06:30:00Z,30.3288,-87.8293,0.0,2.4,206.0,99.0,'11111222,11111222,11144222' 
DISL,ioos:station:DISL:BSCA:1,2019-01-01T07:00:00Z,30.3288,-87.8293,0.0,2.0,207.0,99.0,'11111222,11111222,11144222' 
DISL,ioos:station:DISL:BSCA:1,2019-01-01T07:20:00Z,30.3288,-87.8293,0.0,1.74,199.8,-9999.0,'1111122,1111122,1111122' 
DISL,ioos:station:DISL:BSCA:1,2019-01-01T07:30:00Z,30.3288,-87.8293,0.0,1.5,203.0,99.0,'11111222,11111222,11144222' 
DISL,ioos:station:DISL:BSCA:1,2019-01-01T08:00:00Z,30.3288,-87.8293,0.0,1.4,205.0,99.0,'11111222,11111222,11144222' 
DISL,ioos:station:DISL:BSCA:1,2019-01-01T08:20:00Z,30.3288,-87.8293,0.0,0.7,206.0,-9999.0,'1111122,1111122,1111122' 
DISL,ioos:station:DISL:BSCA:1,2019-01-01T08:30:00Z,30.3288,-87.8293,0.0,1.1,208.0,99.0,'11111222,11111222,11144222' 
DISL,ioos:station:DISL:BSCA:1,2019-01-01T09:30:00Z,30.3288,-87.8293,0.0,1.2,199.0,99.0,'11111222,11111222,11144222' 
DISL,ioos:station:DISL:BSCA:1,2019-01-01T09:50:00Z,30.3288,-87.8293,0.0,1.56,205.9,-9999.0,'1111122,1111122,1111122' 
DISL,ioos:station:DISL:BSCA:1,2019-01-01T10:00:00Z,30.3288,-87.8293,0.0,2.0,194.0,99.0,'11111222,11111222,11144222' 
DISL,ioos:station:DISL:BSCA:1,2019-01-01T10:30:00Z,30.3288,-87.8293,0.0,2.7,201.0,99.0,'11111222,11111222,11144222' 
DISL,ioos:station:DISL:BSCA:1,2019-01-01T10:50:00Z,30.3288,-87.8293,0.0,3.31,197.2,-9999.0,'1111122,1111122,1111122' 
DISL,ioos:station:DISL:BSCA:1,2019-01-01T11:00:00Z,30.3288,-87.8293,0.0,2.9,190.0,99.0,'11111222,11111222,11144222' 
DISL,ioos:station:DISL:BSCA:1,2019-01-01T11:30:00Z,30.3288,-87.8293,0.0,2.8,186.0,99.0,'11111222,11111222,11144222' 
DISL,ioos:station:DISL:BSCA:1,2019-01-01T11:50:00Z,30.3288,-87.8293,0.0,3.09,181.4,-9999.0,'1111122,1111122,1111122' 
DISL,ioos:station:DISL:BSCA:1,2019-01-01T12:00:00Z,30.3288,-87.8293,0.0,3.0,192.0,99.0,'11111222,11111222,11144222' 
DISL,ioos:station:DISL:BSCA:1,2019-01-01T12:30:00Z,30.3288,-87.8293,0.0,2.2,203.0,99.0,'11111222,11111222,11144222' 
DISL,ioos:station:DISL:BSCA:1,2019-01-01T12:50:00Z,30.3288,-87.8293,0.0,2.56,203.7,-9999.0,'1111122,1111122,1111122' 
DISL,ioos:station:DISL:BSCA:1,2019-01-01T13:00:00Z,30.3288,-87.8293,0.0,3.1,197.0,99.0,'11111222,11111222,11144222' 
DISL,ioos:station:DISL:BSCA:1,2019-01-01T13:30:00Z,30.3288,-87.8293,0.0,4.6,178.0,99.0,'11111222,11111222,11144222' 
DISL,ioos:station:DISL:BSCA:1,2019-01-01T13:50:00Z,30.3288,-87.8293,0.0,3.57,188.2,-9999.0,'1111122,1111122,1111122' 
DISL,ioos:station:DISL:BSCA:1,2019-01-01T14:00:00Z,30.3288,-87.8293,0.0,2.9,194.0,99.0,'11111222,11111222,11144222' 
DISL,ioos:station:DISL:BSCA:1,2019-01-01T14:30:00Z,30.3288,-87.8293,0.0,3.6,199.0,99.0,'11111222,11111222,11144222' 
DISL,ioos:station:DISL:BSCA:1,2019-01-01T14:50:00Z,30.3288,-87.8293,0.0,3.5,273.4,-9999.0,'1111122,1111122,1111122' 
DISL,ioos:station:DISL:BSCA:1,2019-01-01T15:00:00Z,30.3288,-87.8293,0.0,3.3,284.0,99.0,'11111222,11111222,11144222' 
DISL,ioos:station:DISL:BSCA:1,2019-01-01T15:30:00Z,30.3288,-87.8293,0.0,1.8,247.0,99.0,'11111222,11111222,11144222' 
DISL,ioos:station:DISL:BSCA:1,2019-01-01T15:50:00Z,30.3288,-87.8293,0.0,1.6,274.9,-9999.0,'1111122,1111122,1111122' 
DISL,ioos:station:DISL:BSCA:1,2019-01-01T16:00:00Z,30.3288,-87.8293,0.0,0.7,310.0,99.0,'11111222,11111222,11144222' 
DISL,ioos:station:DISL:BSCA:1,2019-01-01T16:30:00Z,30.3288,-87.8293,0.0,0.4,72.0,99.0,'11111222,11111222,11144222' 
DISL,ioos:station:DISL:BSCA:1,2019-01-01T16:50:00Z,30.3288,-87.8293,0.0,0.21,140.0,-9999.0,'1111122,1111122,1111122' 
DISL,ioos:station:DISL:BSCA:1,2019-01-01T17:00:00Z,30.3288,-87.8293,0.0,0.4,182.0,99.0,'11111222,11111222,11144222' 
DISL,ioos:station:DISL:BSCA:1,2019-01-01T17:30:00Z,30.3288,-87.8293,0.0,0.6,152.0,99.0,'11111222,11111222,11144222' 
DISL,ioos:station:DISL:BSCA:1,2019-01-01T17:50:00Z,30.3288,-87.8293,0.0,1.09,123.0,-9999.0,'1111122,1111122,1111122' 
DISL,ioos:station:DISL:BSCA:1,2019-01-01T18:00:00Z,30.3288,-87.8293,0.0,0.0,31.0,99.0,'11111222,11111222,11144222' 
DISL,ioos:station:DISL:BSCA:1,2019-01-01T18:30:00Z,30.3288,-87.8293,0.0,2.7,307.0,99.0,'11111222,11111222,11144222' 
DISL,ioos:station:DISL:BSCA:1,2019-01-01T18:50:00Z,30.3288,-87.8293,0.0,1.98,326.0,-9999.0,'1111122,1111122,1111122' 
DISL,ioos:station:DISL:BSCA:1,2019-01-01T19:00:00Z,30.3288,-87.8293,0.0,1.3,337.0,99.0,'11111222,11111222,11144222' 
DISL,ioos:station:DISL:BSCA:1,2019-01-01T19:30:00Z,30.3288,-87.8293,0.0,0.8,8.0,99.0,'11111222,11111222,11144222' 
DISL,ioos:station:DISL:BSCA:1,2019-01-01T19:50:00Z,30.3288,-87.8293,0.0,0.52,27.5,-9999.0,'1111122,1111122,1111122' 
DISL,ioos:station:DISL:BSCA:1,2019-01-01T20:00:00Z,30.3288,-87.8293,0.0,0.8,110.0,99.0,'11111222,11111222,11144222' 
DISL,ioos:station:DISL:BSCA:1,2019-01-01T20:30:00Z,30.3288,-87.8293,0.0,1.7,150.0,99.0,'11111222,11111222,11144222' 
DISL,ioos:station:DISL:BSCA:1,2019-01-01T20:50:00Z,30.3288,-87.8293,0.0,1.56,175.6,-9999.0,'1111122,1111122,1111122' 
DISL,ioos:station:DISL:BSCA:1,2019-01-01T21:00:00Z,30.3288,-87.8293,0.0,0.5,206.0,99.0,'11111222,11111222,11144222' 
DISL,ioos:station:DISL:BSCA:1,2019-01-01T21:30:00Z,30.3288,-87.8293,0.0,0.3,208.0,99.0,'11111222,11111222,11144222' 
DISL,ioos:station:DISL:BSCA:1,2019-01-01T21:50:00Z,30.3288,-87.8293,0.0,0.83,166.5,-9999.0,'1111122,1111122,1111122' 
DISL,ioos:station:DISL:BSCA:1,2019-01-01T22:00:00Z,30.3288,-87.8293,0.0,0.7,195.0,99.0,'11111222,11111222,11144222' 
DISL,ioos:station:DISL:BSCA:1,2019-01-01T22:30:00Z,30.3288,-87.8293,0.0,0.6,188.0,99.0,'11111222,11111222,11144222' 
DISL,ioos:station:DISL:BSCA:1,2019-01-01T22:50:00Z,30.3288,-87.8293,0.0,1.74,158.4,-9999.0,'1111122,1111122,1111122' 
DISL,ioos:station:DISL:BSCA:1,2019-01-01T23:00:00Z,30.3288,-87.8293,0.0,3.1,146.0,99.0,'11111222,11111222,11144222' 
DISL,ioos:station:DISL:BSCA:1,2019-01-01T23:30:00Z,30.3288,-87.8293,0.0,0.9,167.0,99.0,'11111222,11111222,11144222' 
DISL,ioos:station:DISL:BSCA:1,2019-01-01T23:50:00Z,30.3288,-87.8293,0.0,1.11,177.4,-9999.0,'1111122,1111122,1111122' 
DISL,ioos:station:DISL:BSCA:1,2019-01-02T00:00:00Z,30.3288,-87.8293,0.0,1.2,182.0,99.0,'11111222,11111222,11144222' 
DISL,ioos:station:DISL:BSCA:1,2019-01-02T00:30:00Z,30.3288,-87.8293,0.0,0.8,195.0,99.0,'11111222,11111222,11144222' 
DISL,ioos:station:DISL:BSCA:1,2019-01-02T00:50:00Z,30.3288,-87.8293,0.0,1.14,172.8,-9999.0,'1111122,1111122,1111122' 
DISL,ioos:station:DISL:BSCA:1,2019-01-02T01:00:00Z,30.3288,-87.8293,0.0,0.9,175.0,99.0,'11111222,11111222,11144222' 
DISL,ioos:station:DISL:BSCA:1,2019-01-02T01:30:00Z,30.3288,-87.8293,0.0,2.3,160.0,99.0,'11111222,11111222,11144222' 
DISL,ioos:station:DISL:BSCA:1,2019-01-02T01:50:00Z,30.3288,-87.8293,0.0,2.99,173.8,-9999.0,'1111122,1111122,1111122' 
DISL,ioos:station:DISL:BSCA:1,2019-01-02T02:00:00Z,30.3288,-87.8293,0.0,1.9,176.0,99.0,'11111222,11111222,11144222' 
DISL,ioos:station:DISL:BSCA:1,2019-01-02T02:30:00Z,30.3288,-87.8293,0.0,0.2,203.0,99.0,'11111222,11111222,11144222' 
DISL,ioos:station:DISL:BSCA:1,2019-01-02T02:50:00Z,30.3288,-87.8293,0.0,0.3,212.8,-9999.0,'1111122,1111122,1111122' 
DISL,ioos:station:DISL:BSCA:1,2019-01-02T03:00:00Z,30.3288,-87.8293,0.0,0.5,217.0,99.0,'11111222,11111222,11144222' 
DISL,ioos:station:DISL:BSCA:1,2019-01-02T03:30:00Z,30.3288,-87.8293,0.0,0.8,278.0,99.0,'11111222,11111222,11144222' 
DISL,ioos:station:DISL:BSCA:1,2019-01-02T03:50:00Z,30.3288,-87.8293,0.0,0.96,269.2,-9999.0,'1111122,1111122,1111122' 
DISL,ioos:station:DISL:BSCA:1,2019-01-02T04:00:00Z,30.3288,-87.8293,0.0,1.3,316.0,99.0,'11111222,11111222,11144222' 
DISL,ioos:station:DISL:BSCA:1,2019-01-02T04:30:00Z,30.3288,-87.8293,0.0,2.2,352.0,99.0,'11111222,11111222,11144222' 
DISL,ioos:station:DISL:BSCA:1,2019-01-02T04:50:00Z,30.3288,-87.8293,0.0,1.61,330.6,-9999.0,'1111122,1111122,1111122' 
DISL,ioos:station:DISL:BSCA:1,2019-01-02T05:00:00Z,30.3288,-87.8293,0.0,2.6,337.0,99.0,'11111222,11111222,11144222' 
DISL,ioos:station:DISL:BSCA:1,2019-01-02T05:30:00Z,30.3288,-87.8293,0.0,4.2,326.0,99.0,'11111222,11111222,11144222' 
DISL,ioos:station:DISL:BSCA:1,2019-01-02T05:50:00Z,30.3288,-87.8293,0.0,2.4,326.2,-9999.0,'1111122,1111122,1111122' 
DISL,ioos:station:DISL:BSCA:1,2019-01-02T06:00:00Z,30.3288,-87.8293,0.0,2.1,341.0,99.0,'11111222,11111222,11144222' 
DISL,ioos:station:DISL:BSCA:1,2019-01-02T06:30:00Z,30.3288,-87.8293,0.0,3.0,5.0,99.0,'11111222,11111222,11144222' 
DISL,ioos:station:DISL:BSCA:1,2019-01-02T06:50:00Z,30.3288,-87.8293,0.0,3.67,47.07,-9999.0,'1111122,1111122,1111122' 
DISL,ioos:station:DISL:BSCA:1,2019-01-02T07:00:00Z,30.3288,-87.8293,0.0,3.8,59.0,99.0,'11111222,11111222,11144222' 
DISL,ioos:station:DISL:BSCA:1,2019-01-02T07:30:00Z,30.3288,-87.8293,0.0,2.9,5.0,99.0,'11111222,11111222,11144222' 
DISL,ioos:station:DISL:BSCA:1,2019-01-02T07:50:00Z,30.3288,-87.8293,0.0,1.33,107.2,-9999.0,'1111122,1111122,1111122' 
DISL,ioos:station:DISL:BSCA:1,2019-01-02T08:00:00Z,30.3288,-87.8293,0.0,2.5,13.0,99.0,'11111222,11111222,11144222' 
DISL,ioos:station:DISL:BSCA:1,2019-01-02T08:30:00Z,30.3288,-87.8293,0.0,1.5,158.0,99.0,'11111222,11111222,11144222' 
DISL,ioos:station:DISL:BSCA:1,2019-01-02T08:50:00Z,30.3288,-87.8293,0.0,3.7,81.0,-9999.0,'1111122,1111122,1111122' 
DISL,ioos:station:DISL:BSCA:1,2019-01-02T09:00:00Z,30.3288,-87.8293,0.0,3.9,82.0,99.0,'11111222,11111222,11144222' 
DISL,ioos:station:DISL:BSCA:1,2019-01-02T09:30:00Z,30.3288,-87.8293,0.0,2.7,95.0,99.0,'11111222,11111222,11144222' 
DISL,ioos:station:DISL:BSCA:1,2019-01-02T09:50:00Z,30.3288,-87.8293,0.0,1.69,56.88,-9999.0,'1111122,1111122,1111122' 
DISL,ioos:station:DISL:BSCA:1,2019-01-02T10:00:00Z,30.3288,-87.8293,0.0,2.5,20.0,99.0,'11111222,11111222,11144222' 
DISL,ioos:station:DISL:BSCA:1,2019-01-02T10:30:00Z,30.3288,-87.8293,0.0,3.4,346.0,99.0,'11111222,11111222,11144222' 
DISL,ioos:station:DISL:BSCA:1,2019-01-02T10:50:00Z,30.3288,-87.8293,0.0,2.61,349.9,-9999.0,'1111122,1111122,1111122' 
DISL,ioos:station:DISL:BSCA:1,2019-01-02T11:00:00Z,30.3288,-87.8293,0.0,2.6,358.0,99.0,'11111222,11111222,11144222' 
DISL,ioos:station:DISL:BSCA:1,2019-01-02T11:30:00Z,30.3288,-87.8293,0.0,2.5,37.0,99.0,'11111222,11111222,11144222' 
DISL,ioos:station:DISL:BSCA:1,2019-01-02T11:50:00Z,30.3288,-87.8293,0.0,2.38,55.89,-9999.0,'1111122,1111122,1111122' 
DISL,ioos:station:DISL:BSCA:1,2019-01-02T12:50:00Z,30.3288,-87.8293,0.0,0.7,150.3,-9999.0,'1111122,1111122,1111122' 
DISL,ioos:station:DISL:BSCA:1,2019-01-02T13:50:00Z,30.3288,-87.8293,0.0,1.85,10.45,-9999.0,'1111122,1111122,1111122' 
DISL,ioos:station:DISL:BSCA:1,2019-01-02T14:50:00Z,30.3288,-87.8293,0.0,1.96,326.0,-9999.0,'1111122,1111122,1111122' 
DISL,ioos:station:DISL:BSCA:1,2019-01-02T15:50:00Z,30.3288,-87.8293,0.0,0.39,341.9,-9999.0,'1111122,1111122,1111122' 
DISL,ioos:station:DISL:BSCA:1,2019-01-02T16:50:00Z,30.3288,-87.8293,0.0,2.15,304.5,-9999.0,'1111122,1111122,1111122' 
DISL,ioos:station:DISL:BSCA:1,2019-01-02T17:50:00Z,30.3288,-87.8293,0.0,0.38,291.3,-9999.0,'1111122,1111122,1111122' 
DISL,ioos:station:DISL:BSCA:1,2019-01-02T18:50:00Z,30.3288,-87.8293,0.0,1.46,270.9,-9999.0,'1111122,1111122,1111122' 
DISL,ioos:station:DISL:BSCA:1,2019-01-02T19:50:00Z,30.3288,-87.8293,0.0,0.64,314.3,-9999.0,'1111122,1111122,1111122' 
DISL,ioos:station:DISL:BSCA:1,2019-01-02T20:00:00Z,30.3288,-87.8293,0.0,1.1,299.0,99.0,'11111222,11111222,11144222' 
DISL,ioos:station:DISL:BSCA:1,2019-01-02T20:30:00Z,30.3288,-87.8293,0.0,0.6,96.0,99.0,'11111222,11111222,11144222' 
DISL,ioos:station:DISL:BSCA:1,2019-01-02T20:50:00Z,30.3288,-87.8293,0.0,1.17,109.8,-9999.0,'1111122,1111122,1111122' 
DISL,ioos:station:DISL:BSCA:1,2019-01-02T21:00:00Z,30.3288,-87.8293,0.0,1.7,122.0,99.0,'11111222,11111222,11144222' 
DISL,ioos:station:DISL:BSCA:1,2019-01-02T21:30:00Z,30.3288,-87.8293,0.0,2.0,110.0,99.0,'11111222,11111222,11144222' 
DISL,ioos:station:DISL:BSCA:1,2019-01-02T21:50:00Z,30.3288,-87.8293,0.0,2.6,147.4,-9999.0,'1111122,1111122,1111122' 
DISL,ioos:station:DISL:BSCA:1,2019-01-02T22:00:00Z,30.3288,-87.8293,0.0,1.5,160.0,99.0,'11111222,11111222,11144222' 
DISL,ioos:station:DISL:BSCA:1,2019-01-02T22:30:00Z,30.3288,-87.8293,0.0,1.2,188.0,99.0,'11111222,11111222,11144222' 
DISL,ioos:station:DISL:BSCA:1,2019-01-02T22:50:00Z,30.3288,-87.8293,0.0,4.08,174.9,-9999.0,'1111122,1111122,1111122' 
DISL,ioos:station:DISL:BSCA:1,2019-01-02T23:00:00Z,30.3288,-87.8293,0.0,4.3,177.0,99.0,'11111222,11111222,11144222' 
DISL,ioos:station:DISL:BSCA:1,2019-01-02T23:30:00Z,30.3288,-87.8293,0.0,4.7,169.0,99.0,'11111222,11111222,11144222' 
DISL,ioos:station:DISL:BSCA:1,2019-01-02T23:50:00Z,30.3288,-87.8293,0.0,4.28,170.2,-9999.0,'1111122,1111122,1111122' 
DISL,ioos:station:DISL:BSCA:1,2019-01-03T00:00:00Z,30.3288,-87.8293,0.0,3.7,177.0,99.0,'11111222,11111222,11144222' 
DISL,ioos:station:DISL:BSCA:1,2019-01-03T00:30:00Z,30.3288,-87.8293,0.0,4.1,174.0,99.0,'11111222,11111222,11144222' 
DISL,ioos:station:DISL:BSCA:1,2019-01-03T00:50:00Z,30.3288,-87.8293,0.0,3.81,167.4,-9999.0,'1111122,1111122,1111122' 
DISL,ioos:station:DISL:BSCA:1,2019-01-03T01:00:00Z,30.3288,-87.8293,0.0,1.9,180.0,99.0,'11111222,11111222,11144222' 
DISL,ioos:station:DISL:BSCA:1,2019-01-03T01:30:00Z,30.3288,-87.8293,0.0,3.2,135.0,99.0,'11111222,11111222,11144222' 
DISL,ioos:station:DISL:BSCA:1,2019-01-03T01:50:00Z,30.3288,-87.8293,0.0,3.48,140.0,-9999.0,'1111122,1111122,1111122' 
DISL,ioos:station:DISL:BSCA:1,2019-01-03T02:00:00Z,30.3288,-87.8293,0.0,1.9,160.0,99.0,'11111222,11111222,11144222' 
DISL,ioos:station:DISL:BSCA:1,2019-01-03T02:30:00Z,30.3288,-87.8293,0.0,2.9,152.0,99.0,'11111222,11111222,11144222' 
DISL,ioos:station:DISL:BSCA:1,2019-01-03T03:00:00Z,30.3288,-87.8293,0.0,0.1,188.0,99.0,'11111222,11111222,11144222' 
DISL,ioos:station:DISL:BSCA:1,2019-01-03T03:30:00Z,30.3288,-87.8293,0.0,0.9,175.0,99.0,'11111222,11111222,11144222' 
DISL,ioos:station:DISL:BSCA:1,2019-01-03T04:00:00Z,30.3288,-87.8293,0.0,2.5,152.0,99.0,'11111222,11111222,11144222' 
DISL,ioos:station:DISL:BSCA:1,2019-01-03T04:30:00Z,30.3288,-87.8293,0.0,3.5,158.0,99.0,'11111222,11111222,11144222' 
DISL,ioos:station:DISL:BSCA:1,2019-01-03T05:00:00Z,30.3288,-87.8293,0.0,2.6,156.0,99.0,'11111222,11111222,11144222' 
DISL,ioos:station:DISL:BSCA:1,2019-01-03T05:30:00Z,30.3288,-87.8293,0.0,2.0,172.0,99.0,'11111222,11111222,11144222' 
DISL,ioos:station:DISL:BSCA:1,2019-01-03T06:00:00Z,30.3288,-87.8293,0.0,1.1,181.0,99.0,'11111222,11111222,11144222' 
DISL,ioos:station:DISL:BSCA:1,2019-01-03T06:30:00Z,30.3288,-87.8293,0.0,1.7,165.0,99.0,'11111222,11111222,11144222' 
DISL,ioos:station:DISL:BSCA:1,2019-01-03T06:50:00Z,30.3288,-87.8293,0.0,1.27,163.0,-9999.0,'1111122,1111122,1111122' 
DISL,ioos:station:DISL:BSCA:1,2019-01-03T07:00:00Z,30.3288,-87.8293,0.0,0.9,158.0,99.0,'11111222,11111222,11144222' 
DISL,ioos:station:DISL:BSCA:1,2019-01-03T07:30:00Z,30.3288,-87.8293,0.0,2.1,145.0,99.0,'11111222,11111222,11144222' 
DISL,ioos:station:DISL:BSCA:1,2019-01-03T07:50:00Z,30.3288,-87.8293,0.0,1.12,162.4,-9999.0,'1111122,1111122,1111122' 
DISL,ioos:station:DISL:BSCA:1,2019-01-03T08:00:00Z,30.3288,-87.8293,0.0,0.6,175.0,99.0,'11111222,11111222,11144222' 
DISL,ioos:station:DISL:BSCA:1,2019-01-03T08:30:00Z,30.3288,-87.8293,0.0,2.3,163.0,99.0,'11111222,11111222,11144222' 
DISL,ioos:station:DISL:BSCA:1,2019-01-03T08:50:00Z,30.3288,-87.8293,0.0,3.94,165.7,-9999.0,'1111122,1111122,1111122' 
DISL,ioos:station:DISL:BSCA:1,2019-01-03T09:00:00Z,30.3288,-87.8293,0.0,3.5,166.0,99.0,'11111222,11111222,11144222' 
DISL,ioos:station:DISL:BSCA:1,2019-01-03T09:30:00Z,30.3288,-87.8293,0.0,2.6,189.0,99.0,'11111222,11111222,11144222' 
DISL,ioos:station:DISL:BSCA:1,2019-01-03T09:50:00Z,30.3288,-87.8293,0.0,2.87,200.2,-9999.0,'1111122,1111122,1111122' 
DISL,ioos:station:DISL:BSCA:1,2019-01-03T10:00:00Z,30.3288,-87.8293,0.0,3.5,248.0,99.0,'11111222,11111222,11144222' 
DISL,ioos:station:DISL:BSCA:1,2019-01-03T10:30:00Z,30.3288,-87.8293,0.0,0.4,244.0,99.0,'11111222,11111222,11144222' 
DISL,ioos:station:DISL:BSCA:1,2019-01-03T10:50:00Z,30.3288,-87.8293,0.0,3.04,296.0,-9999.0,'1111122,1111122,1111122' 
DISL,ioos:station:DISL:BSCA:1,2019-01-03T11:00:00Z,30.3288,-87.8293,0.0,0.5,251.0,99.0,'11111222,11111222,11144222' 
DISL,ioos:station:DISL:BSCA:1,2019-01-03T11:30:00Z,30.3288,-87.8293,0.0,0.9,252.0,99.0,'11111222,11111222,11144222' 
DISL,ioos:station:DISL:BSCA:1,2019-01-03T11:50:00Z,30.3288,-87.8293,0.0,6.86,302.1,-9999.0,'1111122,1111122,1111122' 
DISL,ioos:station:DISL:BSCA:1,2019-01-03T12:00:00Z,30.3288,-87.8293,0.0,8.7,325.0,99.0,'11111222,11111222,11144222' 
DISL,ioos:station:DISL:BSCA:1,2019-01-03T12:30:00Z,30.3288,-87.8293,0.0,7.3,343.0,99.0,'11111222,11111222,11144222' 
DISL,ioos:station:DISL:BSCA:1,2019-01-03T12:50:00Z,30.3288,-87.8293,0.0,7.01,348.9,-9999.0,'1111122,1111122,1111122' 
DISL,ioos:station:DISL:BSCA:1,2019-01-03T13:00:00Z,30.3288,-87.8293,0.0,6.2,340.0,99.0,'11111222,11111222,11144222' 
DISL,ioos:station:DISL:BSCA:1,2019-01-03T13:30:00Z,30.3288,-87.8293,0.0,5.7,341.0,99.0,'11111222,11111222,11144222' 
DISL,ioos:station:DISL:BSCA:1,2019-01-03T13:50:00Z,30.3288,-87.8293,0.0,6.29,342.5,-9999.0,'1111122,1111122,1111122' 
DISL,ioos:station:DISL:BSCA:1,2019-01-03T14:00:00Z,30.3288,-87.8293,0.0,6.0,9.0,99.0,'11111222,11111222,11144222' 
DISL,ioos:station:DISL:BSCA:1,2019-01-03T14:30:00Z,30.3288,-87.8293,0.0,5.6,358.0,99.0,'11111222,11111222,11144222' 
DISL,ioos:station:DISL:BSCA:1,2019-01-03T14:50:00Z,30.3288,-87.8293,0.0,5.48,20.79,-9999.0,'1111122,1111122,1111122' 
DISL,ioos:station:DISL:BSCA:1,2019-01-03T15:00:00Z,30.3288,-87.8293,0.0,4.9,31.0,99.0,'11111222,11111222,11144222' 
DISL,ioos:station:DISL:BSCA:1,2019-01-03T15:30:00Z,30.3288,-87.8293,0.0,5.1,40.0,99.0,'11111222,11111222,11144222' 
DISL,ioos:station:DISL:BSCA:1,2019-01-03T15:50:00Z,30.3288,-87.8293,0.0,5.96,55.91,-9999.0,'1111122,1111122,1111122' 
DISL,ioos:station:DISL:BSCA:1,2019-01-03T16:00:00Z,30.3288,-87.8293,0.0,6.0,63.0,99.0,'11111222,11111222,11144222' 
DISL,ioos:station:DISL:BSCA:1,2019-01-03T16:30:00Z,30.3288,-87.8293,0.0,4.6,76.0,99.0,'11111222,11111222,11144222' 
DISL,ioos:station:DISL:BSCA:1,2019-01-03T16:50:00Z,30.3288,-87.8293,0.0,4.71,73.76,-9999.0,'1111122,1111122,1111122' 
DISL,ioos:station:DISL:BSCA:1,2019-01-03T17:00:00Z,30.3288,-87.8293,0.0,3.7,87.0,99.0,'11111222,11111222,11144222' 
DISL,ioos:station:DISL:BSCA:1,2019-01-03T17:30:00Z,30.3288,-87.8293,0.0,4.3,109.0,99.0,'11111222,11111222,11144222' 
DISL,ioos:station:DISL:BSCA:1,2019-01-03T17:50:00Z,30.3288,-87.8293,0.0,3.94,132.4,-9999.0,'1111122,1111122,1111122' 
DISL,ioos:station:DISL:BSCA:1,2019-01-03T18:00:00Z,30.3288,-87.8293,0.0,5.1,126.0,99.0,'11111222,11111222,11144222' 
DISL,ioos:station:DISL:BSCA:1,2019-01-03T18:30:00Z,30.3288,-87.8293,0.0,4.2,143.0,99.0,'11111222,11111222,11144222' 
DISL,ioos:station:DISL:BSCA:1,2019-01-03T18:50:00Z,30.3288,-87.8293,0.0,3.84,147.2,-9999.0,'1111122,1111122,1111122' 
DISL,ioos:station:DISL:BSCA:1,2019-01-03T19:00:00Z,30.3288,-87.8293,0.0,4.1,152.0,99.0,'11111222,11111222,11144222' 
DISL,ioos:station:DISL:BSCA:1,2019-01-03T19:30:00Z,30.3288,-87.8293,0.0,2.7,141.0,99.0,'11111222,11111222,11144222' 
DISL,ioos:station:DISL:BSCA:1,2019-01-03T19:50:00Z,30.3288,-87.8293,0.0,0.54,181.2,-9999.0,'1111122,1111122,1111122' 
DISL,ioos:station:DISL:BSCA:1,2019-01-03T20:00:00Z,30.3288,-87.8293,0.0,0.7,220.0,99.0,'11111222,11111222,11144222' 
DISL,ioos:station:DISL:BSCA:1,2019-01-03T20:30:00Z,30.3288,-87.8293,0.0,0.9,232.0,99.0,'11111222,11111222,11144222' 
DISL,ioos:station:DISL:BSCA:1,2019-01-03T20:50:00Z,30.3288,-87.8293,0.0,1.71,277.7,-9999.0,'1111122,1111122,1111122' 
DISL,ioos:station:DISL:BSCA:1,2019-01-03T21:00:00Z,30.3288,-87.8293,0.0,1.8,278.0,99.0,'11111222,11111222,11144222' 
DISL,ioos:station:DISL:BSCA:1,2019-01-03T21:30:00Z,30.3288,-87.8293,0.0,1.1,164.0,99.0,'11111222,11111222,11144222' 
DISL,ioos:station:DISL:BSCA:1,2019-01-03T21:50:00Z,30.3288,-87.8293,0.0,2.02,147.7,-9999.0,'1111122,1111122,1111122' 
DISL,ioos:station:DISL:BSCA:1,2019-01-03T22:00:00Z,30.3288,-87.8293,0.0,2.1,146.0,99.0,'11111222,11111222,11144222' 
DISL,ioos:station:DISL:BSCA:1,2019-01-03T22:30:00Z,30.3288,-87.8293,0.0,2.7,143.0,99.0,'11111222,11111222,11144222' 
DISL,ioos:station:DISL:BSCA:1,2019-01-03T22:50:00Z,30.3288,-87.8293,0.0,2.28,153.3,-9999.0,'1111122,1111122,1111122' 
DISL,ioos:station:DISL:BSCA:1,2019-01-03T23:00:00Z,30.3288,-87.8293,0.0,2.7,133.0,99.0,'11111222,11111222,11144222' 
DISL,ioos:station:DISL:BSCA:1,2019-01-03T23:30:00Z,30.3288,-87.8293,0.0,3.1,116.0,99.0,'11111222,11111222,11144222' 
DISL,ioos:station:DISL:BSCA:1,2019-01-03T23:50:00Z,30.3288,-87.8293,0.0,0.64,147.5,-9999.0,'1111122,1111122,1111122' 
DISL,ioos:station:DISL:BSCA:1,2019-01-04T00:00:00Z,30.3288,-87.8293,0.0,0.5,172.0,99.0,'11111222,11111222,11144222' 
DISL,ioos:station:DISL:BSCA:1,2019-01-04T00:30:00Z,30.3288,-87.8293,0.0,1.2,152.0,99.0,'11111222,11111222,11144222' 
DISL,ioos:station:DISL:BSCA:1,2019-01-04T00:50:00Z,30.3288,-87.8293,0.0,2.39,139.5,-9999.0,'1111122,1111122,1111122' 
DISL,ioos:station:DISL:BSCA:1,2019-01-04T01:00:00Z,30.3288,-87.8293,0.0,2.3,140.0,99.0,'11111222,11111222,11144222' 
DISL,ioos:station:DISL:BSCA:1,2019-01-04T01:30:00Z,30.3288,-87.8293,0.0,5.6,133.0,99.0,'11111222,11111222,11144222' 
DISL,ioos:station:DISL:BSCA:1,2019-01-04T01:50:00Z,30.3288,-87.8293,0.0,6.23,128.5,-9999.0,'1111122,1111122,1111122' 
DISL,ioos:station:DISL:BSCA:1,2019-01-04T02:00:00Z,30.3288,-87.8293,0.0,6.0,130.0,99.0,'11111222,11111222,11144222' 
DISL,ioos:station:DISL:BSCA:1,2019-01-04T02:30:00Z,30.3288,-87.8293,0.0,7.4,131.0,99.0,'11111222,11111222,11144222' 
DISL,ioos:station:DISL:BSCA:1,2019-01-04T02:50:00Z,30.3288,-87.8293,0.0,7.01,137.6,-9999.0,'1111122,1111122,1111122' 
DISL,ioos:station:DISL:BSCA:1,2019-01-04T03:00:00Z,30.3288,-87.8293,0.0,6.1,144.0,99.0,'11111222,11111222,11144222' 
DISL,ioos:station:DISL:BSCA:1,2019-01-04T03:30:00Z,30.3288,-87.8293,0.0,6.8,147.0,99.0,'11111222,11111222,11144222' 
DISL,ioos:station:DISL:BSCA:1,2019-01-04T03:50:00Z,30.3288,-87.8293,0.0,6.89,153.6,-9999.0,'1111122,1111122,1111122' 
DISL,ioos:station:DISL:BSCA:1,2019-01-04T04:00:00Z,30.3288,-87.8293,0.0,7.4,156.0,99.0,'11111222,11111222,11144222' 
DISL,ioos:station:DISL:BSCA:1,2019-01-04T04:30:00Z,30.3288,-87.8293,0.0,7.5,166.0,99.0,'11111222,11111222,11144222' 